Greenville Downtown, SC

11:24 AM EST on January 22, 2018 (GMT -0500)
Greenville Downtown

Weather History for KGMU - April, 2013

Change the Weather History Date:

Sunday, April 28, 2013

  Actual Average Record
Temperature  
Mean Temperature 53 °F -  
Max Temperature 55 °F 71 °F 86 °F (2001)
Min Temperature 51 °F 52 °F 39 °F (2005)
Degree Days  
Heating Degree Days 12    
Growing Degree Days 3 (Base 50)    
Moisture  
Dew Point 51 °F    
Average Humidity 93    
Maximum Humidity 94    
Minimum Humidity 86    
Precipitation  
Precipitation 1.50 in - - ()
Sea Level Pressure  
Sea Level Pressure 30.16 in    
Wind  
Wind Speed 6 mph (NNE)    
Max Wind Speed 13 mph    
Max Gust Speed 20 mph    
Visibility 6 miles    
Events Rain    
Averages and records for this station are not official NWS values.
T = Trace of Precipitation, MM = Missing Value Source: NWS Daily Summary

Daily Weather History Graph

Daily Weather History Graph

Search for Another Location

Airport or City:

Trip Planner

Search our weather history database for the weather conditions in past years. The results will help you decide how hot, cold, wet, or windy it might be!

Date:

Astronomy

Apr. 28, 2013 Rise Set
Actual Time 6:41 AM EDT 8:12 PM EDT
Civil Twilight 6:14 AM EDT 8:39 PM EDT
Nautical Twilight 5:42 AM EDT 9:11 PM EDT
Astronomical Twilight 5:09 AM EDT 9:45 PM EDT
Moon 11:37 PM EDT (4/28) 9:01 AM EDT (4/28)
Length of Visible Light 14h 24m
Length of Day
13h 30m
Waning Gibbous, 89% of the Moon is Illuminated
Apr 28
Waning Gibbous
May 2
Last Quarter
May 9
New
May 18
First Quarter
May 25
Full

Hourly Weather History & Observations

Time (EDT) Temp. Dew Point Humidity Pressure Visibility Wind Dir Wind Speed Gust Speed Precip Events Conditions
12:53 AM 54.0 °F 52.0 °F 93% 30.25 in 10.0 mi NNE 8.1 mph - 0.00 in Rain Light Rain
1:53 AM 54.0 °F 52.0 °F 93% 30.24 in 9.0 mi NNE 4.6 mph - 0.01 in   Mostly Cloudy
2:26 AM 53.6 °F 51.8 °F 94% 30.23 in 8.0 mi Calm Calm - N/A   Overcast
2:40 AM 53.6 °F 51.8 °F 94% 30.23 in 9.0 mi North 5.8 mph - N/A   Overcast
2:53 AM 54.0 °F 52.0 °F 93% 30.22 in 9.0 mi North 8.1 mph - 0.00 in Rain Light Rain
3:53 AM 54.0 °F 52.0 °F 93% 30.21 in 7.0 mi North 8.1 mph - 0.03 in Rain Light Rain
4:53 AM 54.0 °F 51.1 °F 90% 30.22 in 10.0 mi Calm Calm - 0.01 in Rain Light Rain
5:53 AM 54.0 °F 50.0 °F 86% 30.19 in 10.0 mi East 3.5 mph - 0.00 in Rain Light Rain
6:17 AM 53.6 °F 50.0 °F 88% 30.18 in 10.0 mi ENE 4.6 mph - 0.00 in   Overcast
6:53 AM 54.0 °F 50.0 °F 86% 30.19 in 4.0 mi Calm Calm - 0.05 in Rain Heavy Rain
7:12 AM 53.6 °F 50.0 °F 88% 30.18 in 5.0 mi ENE 5.8 mph - 0.04 in Rain Rain
7:33 AM 53.6 °F 50.0 °F 88% 30.18 in 10.0 mi NE 6.9 mph - 0.04 in Rain Light Rain
7:53 AM 53.1 °F 50.0 °F 89% 30.18 in 4.0 mi ENE 5.8 mph - 0.08 in Rain Rain
8:14 AM 53.6 °F 50.0 °F 88% 30.20 in 2.5 mi NW 5.8 mph - 0.06 in Rain Rain
8:19 AM 51.8 °F 50.0 °F 94% 30.22 in 1.8 mi West 10.4 mph - 0.09 in Rain Heavy Rain
8:40 AM 51.8 °F 50.0 °F 94% 30.22 in 3.0 mi NW 3.5 mph - 0.19 in Rain Light Rain
8:51 AM 51.8 °F 50.0 °F 94% 30.22 in 2.0 mi NNW 5.8 mph - 0.22 in Rain Rain
9:10 AM 51.8 °F 50.0 °F 94% 30.21 in 3.0 mi NNE 4.6 mph - 0.01 in Rain Light Rain
9:34 AM 51.8 °F 50.0 °F 94% 30.19 in 4.0 mi NE 8.1 mph - 0.02 in Rain Light Rain
9:53 AM 52.0 °F 50.0 °F 93% 30.19 in 4.0 mi NNE 8.1 mph - 0.03 in Rain Light Rain
10:00 AM 51.8 °F 50.0 °F 94% 30.19 in 4.0 mi NE 5.8 mph - 0.00 in Rain Light Rain
10:24 AM 51.8 °F 50.0 °F 94% 30.20 in 1.8 mi NNW 11.5 mph - 0.07 in Rain Heavy Rain
10:35 AM 51.8 °F 50.0 °F 94% 30.20 in 2.0 mi North 12.7 mph - 0.13 in Rain Heavy Rain
10:40 AM 51.8 °F 48.2 °F 88% 30.20 in 3.0 mi North 9.2 mph - 0.14 in Rain Heavy Rain
10:53 AM 52.0 °F 50.0 °F 93% 30.21 in 3.0 mi North 5.8 mph - 0.17 in Rain Heavy Rain
10:55 AM 51.8 °F 50.0 °F 94% 30.21 in 2.5 mi NNW 8.1 mph - 0.01 in Rain Heavy Rain
11:09 AM 51.8 °F 50.0 °F 94% 30.20 in 1.5 mi North 9.2 mph - 0.09 in Rain Heavy Rain
11:19 AM 51.8 °F 50.0 °F 94% 30.19 in 3.0 mi NNE 8.1 mph - 0.11 in Rain Light Rain
11:53 AM 53.1 °F 51.1 °F 93% 30.18 in 7.0 mi ENE 6.9 mph - 0.12 in Rain Light Rain
11:59 AM 53.6 °F 51.8 °F 94% 30.18 in 2.5 mi NE 3.5 mph - 0.02 in Rain Heavy Rain
12:20 PM 53.6 °F 51.8 °F 94% 30.18 in 3.0 mi NE 5.8 mph - 0.09 in Rain Rain
12:33 PM 53.6 °F 51.8 °F 94% 30.18 in 7.0 mi NE 8.1 mph - 0.10 in Rain Light Rain
12:53 PM 53.1 °F 51.1 °F 93% 30.17 in 7.0 mi ENE 5.8 mph - 0.12 in Rain Light Rain
1:00 PM 53.6 °F 51.8 °F 94% 30.17 in 5.0 mi NE 8.1 mph - 0.02 in Rain Rain
1:11 PM 53.6 °F 51.8 °F 94% 30.17 in 5.0 mi NNE 9.2 mph - 0.03 in Rain Rain
1:53 PM 53.1 °F 51.1 °F 93% 30.14 in 8.0 mi NE 8.1 mph - 0.13 in Rain Light Rain
2:09 PM 53.6 °F 51.8 °F 94% 30.14 in 7.0 mi NE 11.5 mph 19.6 mph 0.01 in Rain Light Rain
2:20 PM 53.6 °F 51.8 °F 94% 30.13 in 2.0 mi ENE 11.5 mph - 0.04 in Rain Rain
2:53 PM 53.1 °F 51.1 °F 93% 30.14 in 2.0 mi NNW 5.8 mph - 0.18 in Rain Heavy Rain
3:10 PM 53.6 °F 51.8 °F 94% 30.13 in 7.0 mi NE 8.1 mph - 0.03 in Rain Light Rain
3:21 PM 53.6 °F 51.8 °F 94% 30.12 in 7.0 mi ENE 6.9 mph - 0.04 in Rain Rain
3:32 PM 53.6 °F 51.8 °F 94% 30.13 in 4.0 mi NNE 6.9 mph - 0.07 in Rain Rain
3:53 PM 54.0 °F 52.0 °F 93% 30.11 in 3.0 mi NNE 11.5 mph - 0.15 in Rain Heavy Rain
3:57 PM 53.6 °F 51.8 °F 94% 30.11 in 2.0 mi NNE 10.4 mph - 0.01 in Rain Heavy Rain
4:09 PM 53.6 °F 51.8 °F 94% 30.11 in 2.0 mi Variable 4.6 mph - 0.04 in Rain Rain
4:53 PM 54.0 °F 52.0 °F 93% 30.09 in 10.0 mi ENE 9.2 mph - 0.10 in Rain Light Rain
5:02 PM 53.6 °F 51.8 °F 94% 30.09 in 5.0 mi NE 6.9 mph - 0.02 in Rain Light Rain
5:10 PM 53.6 °F 51.8 °F 94% 30.09 in 4.0 mi NE 9.2 mph - 0.03 in Rain Rain
5:39 PM 55.4 °F 53.6 °F 94% 30.09 in 9.0 mi ENE 5.8 mph - 0.05 in Rain Light Rain
5:53 PM 54.0 °F 52.0 °F 93% 30.08 in 4.0 mi NE 8.1 mph - 0.08 in Rain Rain
6:12 PM 55.4 °F 53.6 °F 94% 30.09 in 6.0 mi ENE 4.6 mph - 0.02 in Rain Rain
6:25 PM 55.4 °F 53.6 °F 94% 30.11 in 7.0 mi WNW 5.8 mph - 0.04 in Rain Light Rain
6:50 PM 53.6 °F 51.8 °F 94% 30.09 in 5.0 mi NE 8.1 mph - 0.10 in Rain Rain
6:53 PM 55.0 °F 52.0 °F 89% 30.09 in 6.0 mi NE 3.5 mph - 0.10 in Rain Rain
7:12 PM 53.6 °F 51.8 °F 94% 30.08 in 10.0 mi NNE 11.5 mph - 0.01 in Rain Light Rain
7:24 PM 53.6 °F 51.8 °F 94% 30.11 in 6.0 mi WNW 8.1 mph - 0.03 in Rain Rain
7:53 PM 54.0 °F 52.0 °F 93% 30.09 in 6.0 mi North 10.4 mph - 0.13 in Rain Light Rain
8:00 PM 53.6 °F 51.8 °F 94% 30.09 in 10.0 mi NNE 8.1 mph - 0.00 in Rain Light Rain
8:53 PM 54.0 °F 52.0 °F 93% 30.06 in 10.0 mi ENE 9.2 mph - 0.01 in   Overcast
9:53 PM 54.0 °F 52.0 °F 93% 30.07 in 10.0 mi ENE 5.8 mph - N/A   Overcast
10:53 PM 54.0 °F 52.0 °F 93% 30.08 in 10.0 mi East 4.6 mph - 0.00 in Rain Light Rain
11:12 PM 53.6 °F 51.8 °F 94% 30.07 in 10.0 mi Calm Calm - 0.00 in   Overcast
11:53 PM 54.0 °F 52.0 °F 93% 30.06 in 10.0 mi NE 4.6 mph - 0.00 in Rain Light Rain